Temperature
17 18 19 20 23 23 23 23 23 23 23 23 22 22 23 23 23 21 19 18 18 17 16 15 15 14 13 13 13 13 13 12 12 11 11 11 10 10 10 10 10 10 10 10 10 10 11 11 11
18 19 19 21 23 23 23 23 23 23 23 21 21 22 23 22 20 19 19 19 18 17 16 15 15 14 13 13 13 13 13 12 11 11 11 10 10 10 10 10 10 10 10 10 10 10 10 11 11
18 19 20 23 22 23 23 23 24 22 21 22 22 22 22 22 19 19 19 19 18 17 16 15 15 14 13 13 13 13 12 12 11 11 10 10 10 10 10 10 10 10 10 10 10 10 10 11 11
18 19 21 23 22 23 23 24 23 22 21 21 22 22 21 20 19 19 19 19 18 17 15 15 15 14 13 13 13 12 12 11 11 11 10 10 10 10 10 10 10 10 10 10 10 11 11 11 11
18 21 22 22 22 23 23 22 22 23 23 22 22 23 22 20 20 20 19 18 17 17 15 15 15 14 13 13 12 12 11 11 11 10 10 10 10 10 10 10 10 10 10 10 10 10 11 11 11
19 22 22 22 22 22 23 21 22 23 23 22 22 23 22 20 20 19 19 18 17 16 15 15 15 14 13 13 12 12 11 11 10 10 10 10 10 10 10 10 10 10 10 10 10 10 10 10 11
20 22 22 22 22 22 22 21 22 23 23 22 22 23 21 19 19 19 18 17 16 16 15 15 14 13 13 12 12 11 11 11 10 10 10 10 10 9 10 10 10 10 10 10 10 10 10 10 10
19 22 21 21 22 22 22 21 21 22 23 21 20 23 22 19 20 19 18 17 16 16 15 14 13 13 12 12 12 11 11 10 10 10 10 10 10 9 10 10 10 10 9 9 9 9 9 9 10
18 21 21 21 21 22 21 21 21 20 21 20 20 20 20 20 19 19 18 17 17 16 15 14 13 13 12 12 11 11 11 10 10 10 10 9 9 9 9 9 9 9 9 9 9 9 9 9 9
20 21 21 21 21 22 21 21 21 21 21 21 20 20 20 20 19 19 18 18 18 17 16 15 14 13 12 12 11 11 10 10 10 9 9 9 9 9 9 9 9 9 9 9 9 9 8 8 8
20 21 21 20 20 20 21 21 20 21 22 22 22 20 20 20 19 18 18 18 18 17 16 15 14 13 13 12 11 11 10 10 10 9 9 9 9 9 8 8 8 8 8 8 8 8 8 7 7
20 20 20 20 19 19 20 20 21 21 22 21 21 20 20 19 19 19 18 17 17 17 16 15 14 14 13 12 12 11 11 10 10 9 9 9 9 9 8 8 8 8 8 8 8 8 7 7 7
20 20 19 19 18 19 19 20 20 20 20 20 20 19 19 19 19 18 17 16 17 17 16 16 15 14 13 12 12 11 11 10 10 9 9 9 9 9 9 8 8 8 8 8 8 8 7 7 7
19 19 19 19 19 18 19 20 19 20 20 19 19 19 19 18 18 18 17 17 17 17 16 16 15 14 13 12 12 11 11 10 10 10 9 9 9 9 9 9 8 8 8 8 8 7 7 7 7
18 19 20 19 19 18 18 19 20 20 19 18 19 19 18 18 18 18 18 18 17 17 16 16 15 14 13 12 12 11 11 10 10 10 9 9 9 9 9 9 8 8 8 8 8 7 7 7 7
19 19 19 20 18 17 18 20 22 19 18 19 19 19 18 18 18 18 18 18 17 16 16 16 15 14 13 12 12 11 11 10 10 10 9 9 9 9 9 9 8 8 8 8 8 7 7 7 7
19 19 19 19 18 18 18 19 21 19 18 19 19 19 18 18 18 18 18 17 17 17 16 16 15 14 14 13 12 11 11 10 10 10 9 9 9 9 9 9 9 8 8 8 8 7 7 7 7
19 19 18 19 19 18 18 19 21 20 19 19 20 19 19 18 18 18 18 17 17 17 16 16 15 14 14 13 12 11 11 10 10 10 9 9 9 9 9 9 9 8 8 8 7 7 7 7 7
18 18 18 19 18 17 18 19 20 20 20 19 19 19 19 18 17 17 18 17 17 17 16 15 15 14 14 13 12 11 11 10 10 10 9 9 9 9 9 9 9 8 8 8 7 7 7 7 7
17 17 18 19 17 17 18 18 20 20 20 19 19 19 19 18 16 17 17 17 17 16 16 15 15 14 14 13 12 12 11 10 10 10 9 9 9 9 9 9 8 8 8 8 7 7 7 6 6
17 17 18 18 18 17 16 19 20 20 19 18 17 17 17 16 16 16 17 17 17 16 16 15 15 14 14 13 12 12 11 10 10 10 9 9 9 9 9 9 8 8 8 7 7 7 7 6 6
17 17 17 17 17 18 17 18 20 21 20 19 18 17 16 15 15 14 15 16 16 16 16 15 15 14 14 13 12 12 11 11 10 10 10 9 9 9 9 9 8 8 8 7 7 7 6 6 5
18 16 16 16 17 17 17 17 20 20 20 21 20 17 16 14 14 14 15 15 16 15 15 15 14 14 13 13 12 12 11 10 10 10 10 9 9 9 9 9 8 8 7 7 7 6 6 6 5
15 15 15 15 16 16 18 17 19 21 20 20 20 18 16 14 13 13 13 14 15 15 14 14 14 13 13 12 12 11 11 11 10 10 10 10 9 9 9 8 8 8 7 7 6 6 6 6 5
16 17 16 16 16 17 16 16 18 21 20 19 18 17 15 13 12 12 13 14 14 14 14 14 13 13 13 12 12 11 11 11 10 10 10 10 9 9 9 8 8 7 7 7 6 6 6 5 5
16 17 17 17 17 17 15 16 19 20 18 16 16 15 14 13 12 12 12 13 14 14 13 13 13 13 12 12 11 11 11 10 10 10 10 10 9 9 8 8 7 7 7 6 6 5 5 5 4
16 16 18 17 16 16 17 18 19 19 19 17 16 16 15 13 13 12 12 13 13 13 13 13 12 12 12 12 11 11 11 10 10 10 10 9 9 8 8 8 7 7 6 6 5 5 5 4 4
17 17 16 16 16 16 17 17 19 19 19 19 18 17 15 13 13 13 13 13 13 13 13 12 12 12 12 11 11 11 11 10 10 10 9 9 9 8 8 7 7 6 6 5 5 5 4 4 3
15 15 16 17 17 16 17 18 19 19 19 18 18 16 15 14 14 14 14 13 13 13 12 12 12 11 11 11 11 11 10 10 10 9 9 9 8 8 7 7 6 6 5 5 4 4 4 3 3
17 17 17 16 16 16 17 18 19 18 17 17 17 16 15 15 14 14 14 14 13 13 13 12 12 11 11 11 11 10 10 10 9 9 9 8 8 7 7 6 6 5 5 4 4 4 3 3 2
Wind_Speed
5 5 3 3 4 4 5 5 4 5 4 3 2 2 2 2 3 4 4 11 11 17 18 18 16 15 14 13 13 12 12 12 11 12 12 12 12 12 13 13 14 14 14 14 14 14 15 15 15
4 3 3 4 6 7 6 6 7 5 4 5 5 4 3 4 4 6 8 11 13 18 18 18 18 16 15 14 13 13 12 11 11 12 12 12 12 12 12 13 13 13 13 13 13 13 14 14 14
2 3 4 5 6 7 6 7 7 5 6 5 5 2 1 5 5 6 8 14 15 17 17 18 18 17 15 14 13 13 12 11 11 11 11 11 11 11 12 12 12 12 12 13 13 13 13 13 13
3 4 4 7 8 5 3 6 6 8 6 4 4 4 3 3 3 5 12 15 16 17 17 18 19 17 16 15 14 12 11 11 11 11 11 11 11 11 11 11 11 11 11 11 11 11 11 12 12
3 4 7 8 7 4 3 3 6 9 8 6 5 3 6 4 4 8 13 14 16 16 16 18 18 17 16 15 14 12 11 11 11 10 10 10 10 10 10 10 10 10 10 10 10 10 10 10 10
3 5 8 9 8 4 4 5 7 9 7 5 5 4 5 6 7 10 13 14 15 16 16 17 18 17 16 15 14 12 11 11 10 10 9 9 9 9 9 8 8 8 8 8 8 8 8 8 9
4 5 6 7 7 6 4 4 8 9 8 6 4 5 5 8 7 10 13 12 14 16 15 16 18 17 16 15 14 13 11 11 10 9 9 8 8 7 7 7 6 6 6 6 6 6 6 6 7
2 4 5 6 7 6 3 4 3 7 7 3 4 5 3 8 10 11 12 12 13 14 14 15 16 16 16 16 15 13 12 11 10 9 9 8 7 6 6 4 4 3 3 3 3 4 5 5 6
2 5 6 6 5 4 3 4 3 2 4 4 4 2 4 10 12 13 12 12 13 14 14 14 15 15 15 14 15 14 13 11 11 10 10 7 5 5 4 3 1 1 2 2 3 4 5 3 1
4 7 5 2 2 1 2 3 4 5 7 7 6 5 6 10 13 15 16 16 16 17 16 14 14 15 14 13 13 12 12 12 10 9 9 7 5 3 2 3 2 2 2 2 2 3 2 5 4
4 5 3 3 2 2 2 3 3 6 9 10 10 9 11 12 14 16 16 17 17 16 16 15 14 15 14 12 12 11 10 10 9 9 8 6 5 4 4 3 3 3 3 3 2 4 4 5 6
4 4 3 2 2 3 4 3 6 9 11 7 7 5 11 14 16 17 17 16 15 15 17 16 16 15 15 13 12 11 10 9 9 9 9 7 5 4 4 4 3 3 3 3 4 5 5 6 7
7 5 4 4 4 5 6 10 10 13 13 8 6 8 12 14 16 15 14 13 14 15 16 17 16 15 15 13 11 11 10 10 10 9 9 8 6 5 5 5 4 4 4 4 5 6 6 7 7
4 4 4 5 7 5 8 14 10 15 12 11 11 12 13 14 14 14 14 14 15 16 16 16 17 17 16 13 11 11 11 10 10 9 9 9 7 6 5 5 5 5 5 5 5 6 6 6 7
2 5 8 8 6 4 6 13 13 15 10 12 13 13 13 13 13 14 15 15 15 15 15 17 17 17 16 15 14 11 11 10 10 9 10 10 9 7 7 5 5 4 4 5 5 5 6 6 6
3 5 7 4 3 3 6 14 9 5 7 11 12 12 12 13 14 14 13 13 13 13 15 16 14 17 17 15 13 11 11 11 10 9 9 9 9 8 7 5 4 3 3 3 4 4 5 5 6
6 7 8 5 3 3 7 12 10 6 8 12 13 12 12 13 14 13 13 13 13 13 14 16 17 17 17 15 13 12 10 10 9 8 7 7 7 7 6 4 3 3 2 2 2 4 5 6 6
7 7 6 7 2 4 10 16 17 14 13 16 16 15 14 14 15 12 12 11 11 12 13 15 16 16 15 13 10 8 8 8 8 7 7 7 7 6 5 4 4 3 2 2 2 3 3 4 6
6 8 10 9 5 6 13 18 19 18 16 17 17 16 16 16 12 10 11 10 11 11 13 15 16 16 14 12 11 10 9 7 6 6 7 7 6 6 6 4 4 3 2 2 2 2 3 4 5
9 11 12 10 4 5 13 20 20 17 16 15 15 15 15 13 11 11 11 11 12 12 14 15 16 16 16 13 11 9 8 6 6 6 6 7 7 6 5 5 4 3 2 2 1 1 2 2 3
12 13 12 10 7 6 9 13 11 10 9 10 11 12 12 12 13 12 13 12 12 12 13 13 15 16 16 14 10 8 6 5 5 6 5 6 7 7 6 5 4 4 3 2 1 1 2 3 2
13 10 10 9 8 7 4 9 12 9 10 7 5 5 7 8 10 11 12 13 12 11 11 13 14 15 15 15 13 14 11 9 9 8 7 7 7 7 7 6 5 4 3 3 2 1 1 3 3
8 3 6 6 8 10 8 9 10 7 7 4 4 4 5 5 7 10 11 12 11 10 10 11 13 14 15 15 15 15 12 9 8 8 9 8 7 7 7 7 6 5 3 3 2 2 2 3 4
8 6 3 3 6 10 9 9 9 5 4 7 8 8 5 3 5 8 9 10 10 10 10 11 13 14 14 14 14 14 13 12 11 11 10 8 6 6 7 6 5 5 4 3 3 3 3 3 4
10 9 6 6 7 7 3 7 10 8 7 9 12 11 7 3 5 8 10 11 11 12 11 12 13 13 14 14 13 13 13 13 13 12 10 9 7 6 7 6 6 5 4 4 3 3 4 4 5
15 14 10 6 6 4 5 8 8 8 8 8 8 8 5 3 5 8 10 11 11 12 12 13 13 13 13 13 12 12 11 10 9 10 9 9 7 7 7 7 6 5 5 4 4 4 4 5 6
11 13 11 8 5 7 8 7 9 8 5 3 3 3 2 2 6 8 10 11 11 12 12 13 13 13 13 13 12 12 11 10 10 10 9 7 6 6 8 7 6 5 5 5 4 5 5 6 6
8 10 7 9 7 8 9 10 7 5 4 3 3 3 1 2 5 8 9 10 11 11 11 12 12 13 12 12 11 9 11 10 10 9 9 8 8 7 7 7 6 5 5 5 5 6 6 7 7
12 12 10 9 9 7 7 6 5 6 4 4 4 4 2 2 5 7 9 10 10 11 11 12 12 12 12 12 11 11 11 10 10 9 9 9 8 8 8 7 6 6 6 6 6 7 7 8 9
17 17 18 13 11 9 8 8 3 6 5 5 5 4 3 2 4 6 8 10 11 12 12 13 13 13 13 12 12 11 11 11 10 10 9 9 8 8 7 7 6 6 6 7 8 8 9 10 11
Wind_Direction
297 303 275 230 213 209 193 161 158 150 155 133 134 168 111 63 34 71 106 150 147 154 158 162 161 154 146 137 128 123 118 111 105 97 91 87 83 79 76 73 70 68 66 63 62 61 59 57 57
305 288 226 216 217 199 181 174 174 154 123 127 138 147 132 98 75 105 136 155 155 156 159 161 158 155 151 143 136 129 123 117 111 103 97 94 89 84 79 76 73 70 69 67 64 62 60 58 57
264 262 211 197 215 208 173 174 170 142 146 162 153 158 92 110 121 128 139 154 157 158 160 156 158 157 152 147 142 135 128 122 117 108 103 99 93 88 83 79 75 72 69 67 65 62 59 57 56
227 200 203 215 204 201 181 160 162 159 167 187 180 154 134 85 106 120 140 155 158 160 161 157 161 159 154 150 146 140 135 129 121 114 110 104 98 92 87 82 78 74 71 68 65 62 59 55 53
227 198 196 204 201 189 198 185 180 181 177 182 199 170 144 120 109 133 151 159 161 161 162 160 163 162 158 155 151 146 142 135 128 121 116 110 104 99 93 87 81 76 71 67 64 61 58 54 52
194 203 205 202 192 188 198 189 190 196 186 178 199 193 145 132 147 149 158 163 164 163 164 161 165 165 162 160 156 152 149 143 136 131 123 117 112 107 100 92 84 77 71 65 61 57 54 51 48
207 200 209 202 195 194 186 183 202 200 201 192 197 205 156 152 145 153 161 163 166 167 167 167 169 170 168 164 160 158 157 150 144 140 134 127 122 116 106 98 90 81 73 65 57 51 47 42 37
248 198 195 199 200 193 162 176 211 216 210 160 198 223 176 146 144 151 158 164 169 172 175 174 175 174 174 171 165 161 162 159 154 148 141 137 137 131 119 118 97 79 66 54 43 36 34 32 25
234 217 207 199 204 186 163 185 173 214 187 177 205 254 81 129 146 153 160 169 176 181 182 181 180 178 178 174 167 167 168 167 162 157 151 161 162 150 145 100 85 14 6 4 11 16 23 2 13
215 222 212 189 207 188 179 212 185 192 207 208 208 188 145 157 168 173 177 180 184 187 187 186 185 181 179 175 174 177 177 175 180 175 173 179 176 177 185 152 214 283 313 304 336 333 305 296 320
212 225 204 208 227 241 226 229 207 224 233 234 233 213 177 181 189 195 195 191 190 188 188 190 188 185 183 180 181 180 179 180 184 183 182 184 188 198 214 220 214 245 273 283 284 282 311 318 324
216 217 221 227 198 230 248 244 236 237 251 259 253 225 188 196 200 203 203 198 191 191 192 192 190 189 189 187 185 185 183 183 185 187 188 191 199 213 223 235 248 260 265 276 280 293 302 305 306
227 230 228 243 242 253 259 254 262 256 257 257 242 217 213 211 211 211 209 201 195 196 195 195 193 192 191 191 189 190 190 189 190 189 196 203 208 217 226 235 241 259 273 275 280 287 295 297 302
219 227 244 255 252 245 257 266 259 261 261 251 239 233 227 222 217 210 206 204 201 199 196 194 196 196 193 194 194 194 193 191 194 195 201 208 215 222 229 238 243 252 260 272 278 284 291 296 300
205 250 259 248 246 244 256 263 250 264 260 252 247 240 234 228 221 216 210 208 206 202 197 195 195 197 196 197 197 195 194 193 197 200 204 208 214 222 229 239 243 249 254 263 275 282 285 293 298
208 243 252 229 225 212 234 266 272 279 252 258 256 247 235 229 224 221 215 212 209 204 199 195 192 196 197 197 195 195 196 196 200 203 204 209 216 221 227 237 242 241 244 259 275 288 293 298 303
227 247 256 264 206 214 236 271 281 274 262 266 262 251 239 232 225 220 214 210 207 204 199 194 192 194 194 194 193 194 193 195 198 200 201 205 213 216 221 228 233 222 224 244 273 288 302 306 311
232 243 256 266 236 242 264 274 281 277 263 263 262 254 243 236 229 216 208 205 203 202 197 192 190 190 188 187 187 184 186 188 190 190 193 197 201 203 204 203 205 202 214 245 269 289 305 311 317
245 255 267 274 275 270 275 281 283 281 268 261 258 252 244 239 231 209 201 197 195 194 193 190 186 185 182 182 183 183 185 182 181 180 185 186 187 183 185 186 186 195 218 243 274 297 302 316 327
232 253 267 279 260 264 286 285 283 276 268 265 264 258 249 241 221 205 198 193 193 190 189 186 186 183 183 184 183 185 176 176 172 165 171 176 177 173 174 184 184 183 190 198 212 271 300 319 335
231 245 261 275 293 257 291 286 274 276 270 270 265 261 255 241 227 208 197 192 190 188 186 183 183 181 183 178 169 155 148 148 164 169 166 168 171 170 172 177 177 173 187 190 193 235 285 305 315
239 236 247 261 279 285 302 299 292 292 293 280 278 269 262 243 229 211 197 191 188 184 180 179 177 179 179 176 176 175 180 184 186 176 167 163 168 168 167 168 169 169 174 177 181 214 264 284 296
233 190 211 242 263 277 257 267 282 288 281 300 322 315 302 258 226 207 196 188 181 173 173 173 173 176 177 181 182 184 187 183 168 163 163 163 161 163 163 165 167 169 174 182 187 210 242 264 281
158 140 143 206 249 262 252 244 276 266 273 310 320 325 321 272 214 198 184 176 171 167 168 170 173 175 178 181 183 187 182 171 164 168 168 168 162 163 166 168 172 177 182 189 203 222 241 258 265
184 204 227 232 226 245 185 236 257 272 286 294 302 311 316 263 199 185 179 178 174 172 171 173 175 175 178 182 184 186 181 176 176 175 177 174 171 174 175 176 181 185 189 198 211 231 248 255 261
196 208 222 244 248 245 200 239 257 287 294 289 289 296 297 228 195 190 187 184 180 178 177 177 179 177 178 181 182 181 177 177 179 179 177 180 179 177 174 180 187 191 197 206 221 240 250 258 261
185 214 233 255 271 269 251 252 278 274 279 296 308 311 299 212 193 192 189 189 186 184 184 183 181 179 179 180 177 176 176 176 172 171 173 174 172 166 175 184 191 197 206 218 231 247 255 261 264
210 184 182 215 239 249 251 249 246 246 271 316 347 352 346 197 194 193 193 193 192 190 187 187 187 184 180 179 176 174 175 173 169 169 171 171 170 170 178 189 197 206 215 226 238 253 259 263 266
181 192 205 213 231 244 256 245 220 238 263 292 315 328 318 228 200 196 195 194 192 190 188 189 190 186 182 181 177 175 173 170 171 173 173 173 174 179 187 195 204 215 225 235 244 253 261 265 270
208 206 203 213 219 228 253 259 191 233 256 268 284 298 294 253 211 199 195 192 193 194 193 192 191 190 188 183 180 178 173 172 175 176 175 176 180 186 193 200 211 222 233 243 252 260 262 266 271
Height
1538 1539 1541 1544 1543 1540 1540 1539 1538 1541 1541 1544 1545 1545 1544 1544 1545 1552 1552 1550 1551 1552 1554 1555 1557 1559 1560 1561 1562 1562 1562 1562 1562 1562 1561 1561 1560 1560 1559 1558 1558 1557 1556 1555 1555 1554 1553 1552 1551
1538 1539 1543 1543 1539 1541 1541 1537 1539 1539 1542 1545 1546 1546 1545 1546 1548 1549 1549 1550 1551 1553 1554 1556 1557 1559 1560 1561 1562 1563 1563 1563 1563 1562 1562 1562 1561 1561 1560 1560 1559 1558 1557 1557 1556 1555 1554 1554 1553
1538 1539 1543 1539 1538 1537 1538 1537 1537 1541 1544 1545 1546 1546 1546 1548 1549 1550 1550 1550 1551 1553 1555 1556 1557 1559 1560 1561 1562 1563 1563 1563 1563 1563 1563 1563 1562 1562 1561 1561 1560 1559 1559 1558 1557 1557 1556 1555 1554
1539 1541 1541 1537 1537 1535 1535 1535 1539 1541 1544 1545 1545 1546 1548 1548 1549 1549 1549 1550 1552 1553 1555 1556 1558 1559 1560 1562 1563 1563 1564 1564 1564 1564 1564 1563 1563 1563 1562 1562 1561 1561 1560 1559 1559 1558 1557 1556 1555
1539 1539 1537 1537 1536 1535 1536 1539 1540 1540 1541 1544 1545 1544 1547 1548 1548 1549 1550 1551 1552 1554 1555 1556 1558 1559 1561 1562 1563 1563 1564 1564 1564 1564 1564 1564 1564 1563 1563 1563 1562 1562 1561 1561 1560 1559 1558 1557 1557
1540 1537 1536 1537 1536 1536 1537 1539 1540 1539 1541 1543 1545 1544 1546 1547 1548 1549 1550 1551 1553 1554 1555 1556 1557 1559 1561 1562 1563 1563 1564 1564 1565 1565 1565 1565 1564 1564 1564 1564 1563 1563 1562 1562 1561 1560 1559 1559 1558
1539 1535 1534 1534 1535 1536 1537 1539 1539 1538 1540 1542 1544 1543 1545 1546 1547 1548 1549 1551 1552 1553 1555 1556 1557 1559 1560 1562 1562 1563 1564 1565 1565 1565 1565 1565 1565 1565 1565 1564 1564 1564 1563 1563 1562 1561 1560 1559 1558
1538 1535 1535 1535 1536 1535 1537 1539 1539 1539 1539 1542 1543 1542 1543 1545 1545 1547 1548 1550 1551 1552 1554 1556 1557 1559 1560 1561 1562 1563 1564 1564 1565 1565 1565 1565 1565 1565 1565 1565 1565 1564 1564 1563 1562 1562 1561 1559 1558
1538 1536 1535 1535 1535 1535 1537 1538 1539 1539 1540 1540 1541 1542 1542 1542 1544 1545 1546 1548 1549 1550 1552 1554 1556 1558 1559 1561 1561 1562 1563 1564 1565 1565 1565 1565 1567 1567 1566 1565 1565 1564 1564 1563 1562 1561 1560 1559 1558
1537 1535 1534 1535 1535 1535 1537 1537 1538 1538 1538 1539 1539 1539 1540 1541 1542 1543 1544 1545 1546 1548 1550 1552 1554 1556 1558 1559 1560 1562 1563 1563 1564 1565 1565 1566 1566 1566 1566 1565 1564 1564 1563 1563 1562 1561 1560 1559 1559
1536 1534 1535 1536 1536 1537 1537 1537 1537 1536 1535 1536 1536 1537 1537 1538 1539 1540 1542 1543 1544 1546 1548 1549 1551 1553 1556 1557 1559 1560 1562 1562 1564 1565 1565 1565 1565 1565 1565 1565 1565 1564 1563 1563 1562 1561 1560 1559 1557
1535 1535 1535 1535 1536 1537 1536 1536 1536 1535 1534 1534 1534 1535 1534 1535 1536 1537 1539 1540 1542 1544 1545 1547 1549 1551 1553 1555 1557 1558 1560 1561 1562 1563 1564 1564 1564 1564 1565 1564 1564 1563 1563 1562 1561 1560 1559 1558 1556
1534 1534 1535 1535 1536 1536 1535 1534 1533 1531 1531 1531 1530 1531 1531 1532 1533 1534 1536 1537 1538 1540 1542 1544 1546 1548 1551 1553 1555 1556 1558 1559 1560 1561 1562 1563 1563 1563 1563 1563 1563 1562 1562 1561 1560 1559 1558 1556 1555
1533 1534 1534 1534 1534 1533 1533 1530 1530 1525 1527 1526 1526 1526 1527 1527 1528 1530 1531 1532 1534 1536 1539 1541 1543 1545 1547 1550 1552 1554 1556 1557 1559 1559 1560 1561 1562 1562 1562 1562 1561 1561 1560 1559 1558 1557 1556 1554 1553
1534 1533 1531 1530 1531 1531 1531 1526 1523 1522 1522 1522 1521 1521 1522 1523 1524 1525 1526 1528 1530 1532 1535 1537 1539 1542 1544 1547 1550 1552 1553 1555 1557 1558 1558 1559 1560 1560 1560 1560 1560 1559 1558 1557 1556 1555 1554 1552 1550
1532 1531 1529 1526 1529 1529 1531 1522 1517 1519 1519 1518 1517 1517 1517 1517 1518 1520 1522 1524 1526 1528 1530 1533 1535 1538 1541 1544 1546 1549 1551 1553 1554 1556 1556 1557 1558 1558 1558 1558 1558 1557 1556 1555 1554 1553 1552 1550 1548
1528 1527 1526 1526 1527 1527 1526 1519 1515 1516 1515 1514 1512 1512 1512 1512 1513 1515 1517 1519 1521 1523 1525 1528 1531 1534 1537 1540 1543 1546 1548 1550 1552 1553 1554 1555 1555 1556 1556 1556 1556 1555 1554 1553 1552 1551 1550 1548 1546
1526 1526 1527 1525 1524 1525 1523 1516 1511 1511 1511 1508 1507 1506 1506 1507 1508 1510 1512 1514 1516 1518 1520 1523 1526 1530 1533 1536 1540 1542 1545 1547 1549 1550 1551 1553 1553 1554 1554 1554 1553 1553 1552 1551 1550 1549 1547 1545 1543
1524 1525 1524 1522 1523 1525 1518 1512 1505 1504 1503 1501 1500 1499 1500 1500 1503 1504 1506 1508 1511 1513 1516 1518 1521 1525 1528 1531 1534 1538 1541 1543 1546 1547 1549 1550 1551 1551 1551 1551 1551 1550 1550 1549 1548 1546 1545 1543 1541
1525 1525 1522 1520 1522 1523 1515 1508 1499 1496 1495 1494 1493 1493 1493 1495 1496 1497 1500 1503 1506 1508 1511 1514 1517 1520 1524 1527 1531 1534 1538 1540 1542 1544 1546 1547 1548 1548 1548 1548 1548 1548 1547 1546 1545 1544 1543 1541 1539
1522 1522 1520 1521 1519 1519 1518 1502 1493 1489 1490 1490 1489 1488 1488 1489 1490 1492 1494 1497 1500 1503 1506 1509 1512 1516 1520 1523 1527 1531 1534 1537 1539 1541 1542 1544 1545 1545 1546 1546 1546 1545 1545 1544 1543 1542 1541 1540 1538
1518 1517 1520 1521 1521 1514 1517 1510 1490 1485 1485 1484 1484 1484 1483 1484 1484 1486 1488 1492 1495 1499 1502 1505 1509 1512 1516 1520 1523 1527 1530 1532 1535 1537 1539 1541 1542 1542 1543 1543 1543 1543 1542 1541 1540 1540 1538 1537 1536
1513 1517 1520 1520 1519 1516 1512 1512 1491 1483 1481 1479 1480 1481 1481 1480 1480 1481 1484 1487 1491 1495 1498 1502 1505 1509 1512 1516 1520 1524 1527 1530 1532 1534 1536 1537 1538 1539 1540 1540 1540 1540 1539 1539 1538 1537 1536 1534 1533
1516 1519 1521 1521 1517 1517 1506 1508 1492 1479 1478 1477 1477 1478 1478 1477 1477 1478 1481 1484 1488 1491 1495 1499 1502 1506 1509 1513 1517 1520 1523 1526 1528 1531 1533 1534 1535 1536 1537 1537 1537 1537 1536 1536 1535 1534 1532 1531 1529
1513 1513 1517 1516 1514 1507 1507 1508 1491 1475 1478 1478 1477 1476 1476 1475 1475 1476 1478 1481 1485 1488 1492 1496 1500 1503 1507 1510 1514 1517 1520 1523 1526 1528 1530 1531 1532 1533 1534 1534 1534 1534 1533 1533 1532 1530 1529 1527 1526
1504 1504 1508 1511 1505 1501 1509 1502 1481 1475 1477 1477 1476 1475 1474 1473 1473 1474 1476 1479 1483 1486 1490 1494 1497 1500 1504 1507 1511 1514 1517 1520 1522 1524 1526 1528 1529 1530 1530 1531 1531 1531 1530 1529 1528 1527 1525 1523 1521
1501 1501 1496 1502 1505 1507 1494 1487 1479 1473 1473 1474 1474 1473 1472 1472 1472 1473 1475 1478 1481 1485 1488 1491 1494 1498 1501 1504 1507 1511 1514 1516 1519 1521 1523 1525 1526 1526 1527 1527 1527 1527 1526 1525 1524 1523 1521 1519 1517
1492 1493 1503 1503 1506 1503 1491 1487 1478 1471 1470 1471 1471 1471 1471 1471 1471 1472 1474 1476 1480 1483 1486 1489 1492 1495 1498 1501 1504 1507 1510 1513 1516 1518 1519 1521 1522 1523 1523 1523 1523 1523 1522 1521 1520 1518 1516 1514 1512
1493 1495 1491 1491 1492 1494 1490 1480 1468 1468 1469 1470 1470 1470 1470 1470 1470 1471 1473 1475 1478 1480 1483 1486 1489 1492 1495 1498 1501 1504 1507 1510 1512 1514 1516 1517 1518 1519 1519 1520 1519 1519 1518 1516 1515 1513 1511 1509 1507
1479 1479 1483 1489 1490 1489 1485 1477 1465 1468 1469 1470 1469 1469 1468 1468 1469 1469 1471 1473 1475 1477 1480 1483 1485 1488 1492 1495 1498 1501 1503 1506 1508 1510 1512 1513 1514 1515 1515 1515 1515 1514 1513 1512 1510 1508 1506 1504 1501